Terug naar catalogus

FENGYUN 1C DEB

ActiefPO
NORAD 31619·DEBRIS·🇨🇳 China

Gelanceerd May 10, 1999 vanaf Taiyuan Satellite Launch Center

Loading…

Volgende Passages (komende 24 uur)

TLE

VersSource: Space-Track

Epoch: Sep 13, 2026, 22:27 UTC

1 31619U 99025BZZ 26256.93549793  .00124859  00000-0  46644-2 0  9990
2 31619  99.0395 141.5248 0043399 111.0769 249.5113 15.25952654676250

Volg FENGYUN 1C DEB in realtime met AllMySat

Download on the App Store